Weather in Sơn La

Vietnam     21°19′43″N   103°55′44″E
temp.,
°C
wind,
m/s
gust,
m/s
humid.,
%
clouds,
%
prec.,
mm/h
press.,
hPa
HPBL,
m
24 july, sat
sat2401:00+21sw1197100 2.9 100211
04:00+21wnw119828 0.6 100226
07:00+22nw129736 0.6 1003136
10:00+26nnw128015 1.1 1002656
13:00+30ese216417 1.8 10001243
16:00+28se24825 0.7 998429
19:00+23sse23924 1.6 100048
22:00+22s2294100 0.0 100338
25 july, sun
sun2501:00+21s1195100 0.0 100212
04:00+21ssw119699 0.0 100211
07:00+22ssw019333 0.0 100364
10:00+26ese008562 1.6 1002275
13:00+29n116486 3.8 1001874
16:00+25nw2491100 1.9 1001307
19:00+22wnw2496100 3.1 1002103
22:00+21w2397100 1.4 100580
26 july, mon
mon2601:00+21wnw1299100 1.9 100447
04:00+20wnw1299100 0.1 100390
07:00+20wnw1399100 0.2 1004139
10:00+22nnw229597 0.1 1004300
13:00+26nnw337454 0.3 1002917
16:00+27nw237944 1.3 1000766
19:00+22wsw11945 2.3 100116
22:00+21wsw11965 0.0 100320
27 july, tue
tue2701:00+20wsw119787 0.0 100224
04:00+20w119798 0.0 100132
07:00+22wnw129589 0.0 1003134
10:00+26nw237484 0.1 1002996
13:00+28nnw237251 1.3 999968
16:00+28nnw127968 1.6 997307
19:00+24w2283100 2.0 99820
22:00+22wsw2187100 0.1 100120
28 july, wed
wed2801:00+22wsw1191100 0.2 100023
04:00+21w1194100 0.0 100021
07:00+22w129199 0.0 1002113
10:00+27nnw237467 0.1 1001888
13:00+28nnw2280100 3.2 999529
16:00+28nw238081 5.2 998348
19:00+23w119190 6.4 100011
22:00+22wsw1195100 0.8 100216